Biloxi, MS

9:35 PM CST on January 19, 2018 (GMT -0600)
Keesler Air Force Base

Weather History for KBIX - October, 2012

Change the Weather History Date:

Saturday, October 6, 2012

  Actual Average Record
Temperature  
Mean Temperature 76 °F -  
Max Temperature 86 °F 83 °F 104 °F (2016)
Min Temperature 67 °F 63 °F 48 °F (1964)
Cooling Degree Days 12    
Growing Degree Days 26 (Base 50)    
Moisture  
Dew Point 67 °F    
Average Humidity 76    
Maximum Humidity 98    
Minimum Humidity 47    
Precipitation  
Precipitation 0.00 in - - ()
Sea Level Pressure  
Sea Level Pressure 30.00 in    
Wind  
Wind Speed 2 mph (South)    
Max Wind Speed 8 mph    
Max Gust Speed -    
Visibility 10 miles    
Events      
Averages and records for this station are not official NWS values.
T = Trace of Precipitation, MM = Missing Value Source: NWS Daily Summary

Daily Weather History Graph

Daily Weather History Graph

Search for Another Location

Airport or City:

Trip Planner

Search our weather history database for the weather conditions in past years. The results will help you decide how hot, cold, wet, or windy it might be!

Date:

Astronomy

Oct. 06, 2012 Rise Set
Actual Time 6:52 AM CDT 6:34 PM CDT
Civil Twilight 6:28 AM CDT 6:58 PM CDT
Nautical Twilight 6:00 AM CDT 7:26 PM CDT
Astronomical Twilight 5:32 AM CDT 7:53 PM CDT
Moon 11:07 PM CDT (10/6) 12:28 PM CDT (10/6)
Length of Visible Light 12h 29m
Length of Day
11h 41m
Waning Gibbous, 65% of the Moon is Illuminated
Oct 6
Waning Gibbous
Oct 8
Last Quarter
Oct 15
New
Oct 21
First Quarter
Oct 29
Full

Hourly Weather History & Observations

Time (CDT) Temp. Heat Index Dew Point Humidity Pressure Visibility Wind Dir Wind Speed Gust Speed Precip Events Conditions
12:55 AM 71.4 °F - 70.0 °F 95% 30.03 in 10.0 mi Calm Calm - N/A   Clear
1:55 AM 71.8 °F - 70.0 °F 94% 30.02 in 10.0 mi Calm Calm - N/A   Clear
2:55 AM 69.3 °F - 68.4 °F 97% 30.01 in 10.0 mi Calm Calm - N/A   Clear
3:55 AM 68.9 °F - 68.2 °F 98% 30.00 in 10.0 mi Calm Calm - N/A   Clear
4:55 AM 68.2 °F - 66.4 °F 94% 30.01 in 10.0 mi ESE 3.5 mph - N/A   Clear
5:55 AM 68.0 °F - 66.6 °F 95% 30.02 in 10.0 mi Calm Calm - N/A   Clear
6:55 AM 67.3 °F - 66.7 °F 98% 30.02 in 10.0 mi Calm Calm - N/A   Clear
7:55 AM 69.8 °F - 66.0 °F 88% 30.03 in 10.0 mi Calm Calm - N/A   Clear
8:55 AM 72.0 °F - 66.2 °F 82% 30.04 in 10.0 mi Calm Calm - N/A   Clear
9:55 AM 76.6 °F - 66.7 °F 71% 30.04 in 10.0 mi Calm Calm - N/A   Clear
10:55 AM 80.8 °F 82.6 °F 65.5 °F 59% 30.03 in 10.0 mi Calm Calm - N/A   Clear
11:55 AM 83.3 °F 84.3 °F 62.8 °F 50% 30.01 in 10.0 mi Calm Calm - N/A   Clear
12:55 PM 86.0 °F 87.1 °F 63.5 °F 47% 29.99 in 10.0 mi Variable 3.5 mph - N/A   Partly Cloudy
1:55 PM 86.0 °F 88.2 °F 66.0 °F 51% 29.96 in 10.0 mi Variable 5.8 mph - N/A   Partly Cloudy
2:55 PM 85.6 °F 87.9 °F 66.4 °F 52% 29.94 in 10.0 mi South 8.1 mph - N/A   Partly Cloudy
3:55 PM 84.0 °F 86.0 °F 65.8 °F 54% 29.94 in 10.0 mi SSW 5.8 mph - N/A   Partly Cloudy
4:55 PM 83.5 °F 85.5 °F 65.7 °F 55% 29.94 in 10.0 mi SW 5.8 mph - N/A   Clear
5:55 PM 81.0 °F 83.4 °F 67.3 °F 63% 29.94 in 10.0 mi SW 4.6 mph - N/A   Partly Cloudy
6:55 PM 77.7 °F - 67.3 °F 70% 29.96 in 10.0 mi Calm Calm - N/A   Scattered Clouds
7:55 PM 77.5 °F - 68.7 °F 74% 29.99 in 10.0 mi Variable 5.8 mph - N/A   Mostly Cloudy
8:55 PM 75.0 °F - 68.4 °F 80% 30.00 in 10.0 mi Calm Calm - N/A   Clear
9:55 PM 72.9 °F - 67.1 °F 82% 30.01 in 10.0 mi NNE 6.9 mph - N/A   Clear
10:55 PM 70.9 °F - 66.0 °F 85% 30.01 in 10.0 mi NNE 6.9 mph - N/A   Clear
11:55 PM 69.3 °F - 65.3 °F 87% 30.01 in 10.0 mi NNE 5.8 mph - N/A   Clear